This is the latest recevied weather packets stored in our database for station/object OK1HOL-13. If no packets are shown the sender has not sent any weather packets the latest 10 day(s).
| Time | Temp. | Humidity | Pressure | Rain* | Wind** | Luminosity | Snow |
|---|---|---|---|---|---|---|---|
| 1777477882 | 15° C | 19% | 1026.2 hPa | - | - | 106 W/m² | - |
| 1777477281 | 15° C | 19% | 1026.1 hPa | - | - | 143 W/m² | - |
| 1777476682 | 15° C | 19% | 1026.1 hPa | - | - | 164 W/m² | - |
| 1777476081 | 15° C | 19% | 1026 hPa | - | - | 184 W/m² | - |
| 1777475485 | 15.56° C | 19% | 1026 hPa | - | - | 0 W/m² | - |
| 1777474880 | 16.11° C | 19% | 1025.9 hPa | - | - | 231 W/m² | - |
| 1777474280 | 16.67° C | 18% | 1025.8 hPa | - | - | 241 W/m² | - |
| 1777473680 | 16.11° C | 19% | 1025.9 hPa | - | - | 276 W/m² | - |
| 1777473080 | 15.56° C | 19% | 1025.8 hPa | - | - | 293 W/m² | - |
| 1777472480 | 16.11° C | 19% | 1025.8 hPa | - | - | 319 W/m² | - |
| 1777471880 | 16.11° C | 19% | 1025.8 hPa | - | - | 330 W/m² | - |
| 1777471280 | 17.22° C | 18% | 1025.8 hPa | - | - | 368 W/m² | - |
| 1777470680 | 16.67° C | 19% | 1025.7 hPa | - | - | 410 W/m² | - |
| 1777470080 | 18.33° C | 17% | 1025.6 hPa | - | - | 414 W/m² | - |
| 1777469480 | 18.89° C | 18% | 1025.6 hPa | - | - | 431 W/m² | - |
| 1777468280 | 17.78° C | 18% | 1025.6 hPa | - | - | 431 W/m² | - |
| 1777467680 | 16.67° C | 20% | 1025.6 hPa | - | - | 431 W/m² | - |
| 1777467080 | 15.56° C | 20% | 1025.7 hPa | - | - | 431 W/m² | - |
| 1777466480 | 15° C | 22% | 1025.6 hPa | - | - | 431 W/m² | - |
| 1777465880 | 15.56° C | 21% | 1025.6 hPa | - | - | 431 W/m² | - |
| 1777465280 | 17.22° C | 19% | 1025.6 hPa | - | - | 431 W/m² | - |
| 1777464680 | 17.22° C | 19% | 1025.6 hPa | - | - | 431 W/m² | - |
| 1777464080 | 18.33° C | 18% | 1025.5 hPa | - | - | 431 W/m² | - |
| 1777463480 | 16.67° C | 20% | 1025.4 hPa | - | - | 431 W/m² | - |
| 1777462880 | 16.67° C | 21% | 1025.4 hPa | - | - | 431 W/m² | - |
* Rain since midnight (hover to see other rain measurements)
** Current wind speed in m/s (hover to see current wind gust speed)